SCP
0 0 0 0 0 0 0 0 0 0 0 0 0 0 0 0 0 0 0 0 0 0 0 0 0 0 0 0 0 0 0 0 0 0 0 0 0 0 0 0 0 0 0
0 0 0 0 0 0 0 0 0 0 0 0 0 0 0 0 0 0 0 0 0 0 0 0 0 0 0 0 0 0 0 0 0 0 0 0 0 0 0 0 0 0 0
1 1 1 0 0 0 0 0 0 0 0 0 0 0 0 0 0 0 0 0 0 0 0 0 0 0 0 0 0 0 0 0 0 0 0 0 0 0 0 0 0 0 0
1 1 1 0 0 0 0 0 0 0 0 0 0 0 0 0 0 0 0 0 0 0 0 0 0 0 0 0 0 0 0 0 0 0 0 0 0 0 0 0 0 0 0
0 0 0 0 0 0 0 0 0 0 0 0 0 0 0 0 0 0 0 0 0 0 0 0 0 0 0 0 0 0 0 0 0 0 0 0 0 0 0 0 0 0 0
0 0 0 0 0 0 0 0 0 0 0 0 0 0 0 0 0 0 0 0 0 0 0 0 0 0 0 0 0 0 0 0 0 0 0 0 0 0 0 0 0 0 0
0 0 0 0 0 0 0 0 0 0 0 0 0 0 0 0 0 0 0 0 0 0 0 0 0 0 0 0 0 0 0 0 0 0 0 0 0 0 0 0 0 0 0
0 0 0 0 0 0 0 0 0 0 0 0 0 0 0 0 0 0 0 0 0 0 0 0 0 0 0 0 0 0 0 0 0 0 0 0 0 0 0 0 0 0 0
0 0 0 0 0 0 1 1 1 1 0 0 0 0 0 0 0 0 0 0 0 0 0 0 0 0 0 0 0 0 0 0 0 0 0 0 0 0 0 0 0 0 0
0 0 0 0 0 1 1 1 1 1 1 1 0 0 0 0 0 0 0 0 0 0 0 0 0 0 0 0 0 0 0 0 0 0 0 0 0 0 0 0 0 0 0
0 0 0 0 0 1 1 1 1 1 1 1 1 0 0 0 0 0 0 0 0 0 0 0 0 0 0 0 0 0 0 0 0 0 0 0 0 0 0 0 0 0 0
1 1 0 0 0 1 1 1 1 1 1 1 1 1 0 0 0 0 0 0 0 0 0 0 0 0 0 0 0 0 0 0 0 0 0 0 0 0 0 0 0 0 0
1 1 1 1 1 1 1 1 1 1 1 1 1 1 1 0 0 0 0 0 0 0 0 0 0 0 0 0 0 0 0 0 0 0 0 0 0 0 0 0 0 0 0
1 1 1 1 1 1 1 1 1 1 1 1 1 1 1 0 0 0 0 0 0 0 0 0 0 0 0 0 0 0 0 0 0 0 0 0 0 0 0 0 0 0 0
1 1 1 1 1 1 1 1 1 1 1 1 1 1 1 1 0 0 0 0 0 0 0 0 0 0 0 0 0 0 0 0 0 0 0 0 0 0 0 0 0 0 0
1 1 1 1 1 1 1 1 1 1 1 1 1 1 1 1 0 0 0 0 0 0 0 0 0 0 0 0 0 0 0 0 0 0 0 0 0 0 0 0 0 0 0
1 1 1 1 1 1 1 1 1 1 1 1 1 1 1 1 1 1 0 0 0 0 0 0 0 0 0 0 0 0 0 0 0 0 0 0 0 0 0 0 0 0 0
1 1 1 1 1 1 1 1 1 1 1 1 1 1 1 1 1 1 1 1 0 0 0 0 0 0 0 0 0 0 0 0 0 0 0 0 0 0 0 0 0 0 0
1 1 1 1 1 1 1 1 1 1 1 1 1 1 1 1 1 1 1 1 1 0 0 0 0 0 0 0 0 0 0 0 0 0 0 0 0 0 0 0 0 0 0
1 1 1 1 1 1 1 1 1 1 1 1 1 1 1 1 1 1 1 1 1 1 1 1 0 0 0 0 0 0 0 0 0 0 0 0 0 0 0 0 0 0 0
1 1 1 1 1 1 1 1 1 1 1 1 1 1 1 1 1 1 1 1 1 1 1 1 1 0 0 0 0 0 0 0 0 0 0 0 0 0 0 0 0 0 0
1 1 1 1 1 1 1 1 1 1 1 1 1 1 1 1 1 1 1 1 1 1 1 1 1 1 1 0 0 0 0 0 0 0 0 0 0 0 0 0 0 0 0
1 1 1 1 1 1 1 1 1 1 1 1 1 1 1 1 1 1 1 1 1 1 1 1 1 1 1 1 0 0 0 0 0 0 0 0 0 0 0 0 0 0 0
1 1 1 1 1 1 1 1 1 1 1 1 1 1 1 1 1 1 1 1 1 1 1 1 1 1 1 1 0 0 0 0 0 0 0 0 0 0 0 0 0 0 0
1 1 1 1 1 1 1 1 1 1 1 1 1 1 1 1 1 1 1 1 1 1 1 1 1 1 1 1 0 0 0 0 0 0 0 0 0 0 0 0 0 0 0
1 1 1 1 1 1 1 1 1 1 1 1 1 1 1 1 1 1 1 1 1 1 1 1 1 1 1 1 0 0 0 0 0 0 0 0 0 0 0 0 0 0 0
Wind_Speed
11 10 11 11 9 7 7 6 6 4 4 3 2 2 1 1 1 1 2 2 3 3 3 2 2 2 2 2 2 2 2 1 2 3 3 3 2 2 1 1 1 1 2
10 11 10 10 10 9 8 7 7 6 5 4 3 2 2 1 1 1 1 2 3 3 3 3 2 2 2 2 2 2 2 1 1 2 2 2 3 3 1 1 1 1 1
16 15 13 11 11 10 10 9 7 6 6 5 3 2 2 1 1 1 1 1 3 3 3 3 3 2 2 2 2 2 2 1 1 1 3 2 1 1 2 1 1 1 1
14 14 13 12 12 11 10 8 8 7 6 6 5 5 4 3 2 2 1 1 2 3 3 3 3 2 2 2 1 2 2 3 1 0 0 2 3 2 1 2 1 0 1
16 15 15 14 12 11 10 9 8 7 6 6 6 5 4 3 2 2 2 2 1 2 3 3 3 3 2 2 1 1 2 2 2 1 0 1 1 2 2 0 1 1 1
15 14 12 11 10 10 10 9 8 7 6 6 6 6 6 5 4 3 3 2 1 1 2 3 3 2 2 2 1 1 2 1 1 1 1 1 1 1 2 1 1 0 1
15 14 14 13 12 12 11 10 10 8 7 7 6 6 6 6 6 5 4 3 2 1 2 2 2 2 2 2 2 2 2 1 1 1 1 1 1 1 2 2 1 0 1
14 15 16 15 14 14 13 11 11 9 8 7 6 5 6 5 4 4 4 4 3 3 3 3 2 2 2 2 2 2 1 1 1 1 1 1 0 1 2 2 3 1 1
14 15 15 15 15 14 13 13 12 10 9 8 7 6 6 5 5 4 4 3 3 3 3 3 3 2 2 2 2 1 1 1 1 0 1 1 0 1 1 2 3 3 1
12 13 13 15 14 14 13 12 12 11 9 8 8 7 6 6 5 5 4 4 3 3 3 3 3 2 2 2 2 1 1 1 0 0 1 1 0 1 1 1 1 2 3
13 11 11 12 12 11 11 11 11 9 9 9 7 7 6 6 5 5 5 4 3 4 4 4 3 3 2 2 2 1 1 1 0 0 1 0 1 1 0 1 1 1 2
12 11 10 10 10 11 11 11 11 10 10 9 7 7 6 6 5 5 5 4 4 4 4 4 3 3 3 2 2 2 1 1 1 0 1 0 1 0 0 1 1 1 2
10 9 9 10 10 10 10 10 10 10 9 8 8 7 6 6 6 5 4 4 4 3 3 3 4 3 3 2 3 2 2 2 2 1 1 1 1 1 1 1 1 1 1
11 10 9 9 10 10 10 10 10 10 10 9 9 8 7 7 6 6 5 4 4 4 4 3 3 3 3 3 3 3 2 2 2 2 2 2 2 2 2 1 2 2 1
9 11 10 9 9 8 8 9 10 10 10 9 9 8 8 7 6 6 6 5 4 5 4 3 2 2 2 3 3 3 3 2 2 2 2 2 2 3 2 2 2 2 2
9 10 10 10 10 10 10 9 9 9 10 10 9 8 8 8 7 6 6 5 4 4 4 3 3 2 2 2 3 3 2 2 2 2 2 2 1 2 2 3 3 3 3
9 10 10 10 11 10 10 10 10 9 10 10 9 9 9 8 8 8 7 7 6 5 4 4 3 3 3 3 3 4 3 2 3 3 2 2 1 1 2 2 2 3 4
8 9 9 8 7 7 7 8 8 9 10 10 10 10 9 9 8 7 7 6 5 5 5 5 4 3 3 4 4 4 3 2 3 3 3 3 3 2 2 1 1 2 3
6 6 7 7 7 7 7 7 8 8 9 10 10 9 9 9 8 8 7 6 5 5 4 4 4 4 4 4 5 4 2 2 3 3 3 3 3 3 2 1 1 2 3
4 4 5 6 7 8 8 8 8 9 9 10 10 9 9 9 9 8 7 5 5 5 5 4 4 5 4 4 6 6 2 2 2 2 3 4 4 4 3 3 3 3 4
4 5 6 6 7 8 9 9 8 9 9 8 8 7 8 8 8 6 5 5 5 5 4 4 4 4 4 5 6 7 4 3 3 2 2 3 4 4 4 4 3 5 3
3 3 4 4 5 7 9 8 8 7 6 7 7 6 6 6 6 6 5 5 6 5 4 4 3 3 3 4 5 7 7 5 4 4 3 3 4 5 5 3 3 3 1
2 3 4 4 3 6 8 8 6 6 6 7 7 7 6 5 6 6 6 5 5 5 4 4 3 3 2 2 4 6 7 6 4 3 4 4 4 3 3 4 3 2 1
1 2 4 4 4 4 5 6 6 7 7 7 6 6 6 5 5 5 5 5 5 5 4 4 4 3 2 2 1 2 2 3 2 2 2 2 2 2 2 2 1 1 2
1 1 3 4 4 4 4 4 5 7 7 7 6 6 6 6 5 4 3 5 5 6 6 5 5 5 4 5 6 4 3 3 3 2 1 1 0 1 1 1 1 1 1
1 1 2 3 3 4 3 4 5 6 7 6 6 5 5 4 4 4 1 0 2 5 7 7 6 5 6 6 7 6 6 5 6 4 2 2 2 3 3 3 2 2 2
Wind_Direction
171 162 159 157 151 151 154 156 154 157 146 134 132 126 128 116 106 128 137 138 132 128 121 115 117 115 109 103 96 98 86 67 88 79 46 22 32 54 63 119 138 176 188
163 166 165 161 160 162 165 163 163 162 159 160 161 159 151 158 154 129 109 129 135 137 135 125 134 128 109 90 85 96 93 68 95 110 91 32 7 10 27 95 169 164 143
172 173 171 169 166 169 171 169 168 165 163 153 134 121 88 60 71 86 131 149 140 129 123 131 135 132 127 130 130 123 125 139 353 120 136 137 205 323 351 0 67 101 144
174 174 171 172 175 175 171 166 167 167 167 156 150 149 149 157 180 169 156 144 133 131 128 127 129 135 135 140 154 135 140 140 155 304 146 161 162 149 341 342 352 41 152
178 178 177 176 176 173 169 167 165 169 169 162 162 158 157 163 155 135 131 135 125 129 136 131 129 132 133 141 140 114 119 136 153 163 120 70 73 122 145 250 333 5 340
180 180 176 168 170 171 170 167 167 172 173 168 166 162 160 155 145 146 149 149 136 133 140 134 132 136 137 145 142 120 118 125 123 123 123 140 148 165 149 162 189 259 299
179 176 174 173 174 174 175 173 173 175 176 171 171 168 165 162 165 167 164 159 153 152 165 140 136 139 145 143 131 103 95 108 117 130 150 144 173 164 146 138 158 150 301
179 180 180 177 177 177 176 176 177 177 177 176 177 170 164 164 167 166 161 166 172 175 167 149 143 147 146 142 123 108 119 111 120 123 140 120 172 130 138 151 144 119 341
180 181 180 178 177 177 178 179 179 177 179 179 173 167 165 164 165 164 161 166 175 168 156 150 147 149 145 140 135 120 160 121 146 205 152 125 119 110 129 137 146 147 166
177 176 180 181 180 179 178 177 177 180 179 177 178 174 170 169 166 161 164 166 167 159 149 152 159 160 155 148 147 145 163 131 232 174 102 83 66 104 100 142 156 153 155
178 178 177 176 175 170 172 174 175 174 175 176 173 170 169 168 161 161 168 168 164 161 159 163 164 169 171 169 162 186 162 158 223 34 106 122 114 127 143 148 153 150 142
171 171 169 165 165 169 171 173 175 175 178 174 167 169 166 160 160 166 170 164 162 166 170 166 162 173 174 172 175 188 177 163 177 220 124 219 141 114 208 175 180 180 169
161 161 163 164 169 170 171 172 174 176 172 165 164 163 161 160 165 170 168 164 164 163 163 159 168 177 174 174 187 179 183 195 206 205 194 216 167 201 227 206 200 205 196
160 160 167 172 173 171 170 170 173 171 167 165 165 167 171 171 171 169 166 164 165 167 170 170 175 180 179 183 192 184 192 207 219 221 218 214 199 209 217 221 220 203 187
159 167 171 175 173 170 171 171 171 170 166 164 170 178 175 171 172 170 170 169 172 177 174 168 174 181 184 198 196 194 195 205 223 238 239 226 202 205 211 215 210 185 181
168 170 169 171 174 175 175 171 172 171 164 167 175 177 173 173 177 178 175 171 179 176 163 168 172 188 212 206 190 184 196 199 207 228 248 246 233 243 243 243 214 184 181
173 172 174 177 178 179 176 175 175 169 166 171 174 174 174 175 180 182 177 180 181 173 172 178 180 198 223 215 207 198 186 192 203 215 223 238 247 245 259 267 262 244 222
179 178 174 174 174 170 169 166 165 167 170 173 178 177 174 176 177 176 181 185 177 176 182 187 192 202 225 217 216 210 193 196 215 218 213 212 240 246 233 242 266 271 259
179 177 171 164 160 161 160 158 166 170 172 176 180 180 176 177 176 181 186 181 172 177 186 187 192 202 229 217 212 197 184 211 236 236 222 215 226 247 216 185 239 280 290
137 148 153 150 156 163 158 159 171 174 182 184 182 178 175 176 179 184 185 174 170 180 181 191 201 204 219 217 207 193 179 209 243 257 248 237 231 234 208 192 207 248 272
118 133 141 156 168 164 158 166 173 187 190 179 174 176 176 176 177 177 174 167 170 173 182 195 212 215 219 216 207 196 192 205 220 233 247 252 238 224 220 212 218 239 253
92 125 143 163 166 164 164 173 186 187 172 167 168 172 172 176 171 166 169 168 170 176 190 196 216 233 232 220 209 203 207 203 204 224 235 241 230 224 226 226 245 251 236
115 136 144 154 166 173 172 179 188 167 160 163 168 169 169 171 169 172 175 172 174 181 194 197 213 233 241 232 213 207 211 212 209 229 238 242 229 222 233 239 239 212 186
103 137 138 148 178 191 188 183 172 163 159 166 171 170 169 171 172 176 177 179 184 189 197 200 210 221 222 223 214 207 209 218 225 243 253 248 230 213 228 249 254 229 209
52 123 155 166 188 183 182 176 168 161 163 169 174 174 173 172 173 178 184 191 201 196 195 203 199 196 216 224 199 182 196 201 199 164 121 107 147 220 254 259 259 257 253
97 114 160 164 173 159 163 176 173 164 165 172 177 178 175 172 168 165 156 358 211 211 210 207 201 212 215 201 197 198 199 195 175 154 175 203 208 214 221 225 238 237 234